When you browse on this site, cookies collect data to enhance your experience and personalize the content and advertising you see.
Visit our Privacy Policy to learn more. By continuing to use the site, you agree to this use of cookies and data.
  • în România
  • Lista ţărilor
  • Pe 7 zile
  • Temperatura apei
  • Meteo pe hartă
  • Widget-uri
  • user-avatar
    Intrare

    Meteo pe oră la Solden

    Astăzi, 13 Noiembrie, Miercuri

    Timp Temperatura Precipitaţii Vânt Presiune Umiditate
    00:00 -10°C° 4.4 mm 3 m/s 568 mmHg 95%
    01:00 -10°C° 4.4 mm 3 m/s 568 mmHg 95%
    02:00 -10°C° 2.5 mm 3 m/s 567 mmHg 95%
    03:00 -10°C° 2.5 mm 3 m/s 567 mmHg 96%
    04:00 -12°C° 2.5 mm 3 m/s 567 mmHg 96%
    05:00 -12°C° 1.7 mm 3 m/s 567 mmHg 96%
    06:00 -12°C° 1.7 mm 3 m/s 567 mmHg 95%
    07:00 -12°C° 1.7 mm 3 m/s 567 mmHg 95%
    08:00 -10°C° 1.5 mm 3 m/s 567 mmHg 95%
    09:00 -10°C° 1.5 mm 3 m/s 567 mmHg 95%
    10:00 -10°C° 1.5 mm 3 m/s 567 mmHg 95%
    11:00 -9°C° 0.8 mm 3 m/s 568 mmHg 94%
    12:00 -9°C° 0.8 mm 3 m/s 568 mmHg 93%
    13:00 -8°C° 0.8 mm 3 m/s 569 mmHg 92%
    14:00 -8°C° 0.1 mm 2 m/s 569 mmHg 92%
    15:00 -8°C° 0.1 mm 2 m/s 569 mmHg 93%
    16:00 -8°C° 0.1 mm 2 m/s 569 mmHg 93%
    17:00 -10°C° 0 mm 2 m/s 568 mmHg 92%
    18:00 -12°C° 0 mm 2 m/s 568 mmHg 90%
    19:00 -14°C° 0 mm 2 m/s 568 mmHg 89%
    20:00 -14°C° 0 mm 2 m/s 568 mmHg 86%
    21:00 -15°C° 0 mm 2 m/s 568 mmHg 82%
    22:00 -13°C° 0 mm 1 m/s 568 mmHg 79%
    23:00 -13°C° 0 mm 1 m/s 568 mmHg 77%

    Mâine, 14 Noiembrie, Joi

    Timp Temperatura Precipitaţii Vânt Presiune Umiditate
    00:00 -14°C° 0 mm 1 m/s 568 mmHg 75%
    01:00 -14°C° 0 mm 1 m/s 568 mmHg 73%
    02:00 -14°C° 0 mm 1 m/s 568 mmHg 75%
    03:00 -14°C° 0 mm 1 m/s 568 mmHg 77%
    04:00 -14°C° 0 mm 1 m/s 568 mmHg 79%
    05:00 -14°C° 0 mm 1 m/s 568 mmHg 79%
    06:00 -14°C° 0 mm 1 m/s 568 mmHg 80%
    07:00 -14°C° 0 mm 1 m/s 568 mmHg 80%
    08:00 -12°C° 0 mm 1 m/s 569 mmHg 81%
    09:00 -10°C° 0 mm 1 m/s 570 mmHg 83%
    10:00 -8°C° 0 mm 1 m/s 571 mmHg 84%
    11:00 -7°C° 0 mm 1 m/s 572 mmHg 85%
    12:00 -7°C° 0 mm 1 m/s 572 mmHg 86%
    13:00 -7°C° 0 mm 2 m/s 572 mmHg 87%
    14:00 -7°C° 0 mm 1 m/s 571 mmHg 88%
    15:00 -8°C° 0 mm 1 m/s 571 mmHg 90%
    16:00 -9°C° 0 mm 1 m/s 570 mmHg 91%
    17:00 -9°C° 0 mm 1 m/s 570 mmHg 89%
    18:00 -12°C° 0 mm 2 m/s 569 mmHg 88%
    19:00 -13°C° 0 mm 2 m/s 569 mmHg 86%
    20:00 -13°C° 0.1 mm 2 m/s 569 mmHg 89%
    21:00 -12°C° 0.1 mm 2 m/s 569 mmHg 92%
    22:00 -12°C° 0.1 mm 2 m/s 569 mmHg 95%
    23:00 -10°C° 2.2 mm 2 m/s 569 mmHg 96%

    Poimâine, 15 Noiembrie, Vineri

    Timp Temperatura Precipitaţii Vânt Presiune Umiditate
    00:00 -9°C° 2.2 mm 2 m/s 569 mmHg 96%
    01:00 -8°C° 2.2 mm 2 m/s 569 mmHg 97%
    02:00 -7°C° 4.2 mm 2 m/s 569 mmHg 97%
    03:00 -7°C° 4.2 mm 2 m/s 568 mmHg 97%
    04:00 -7°C° 4.2 mm 2 m/s 568 mmHg 98%
    05:00 -7°C° 5.2 mm 2 m/s 568 mmHg 98%
    06:00 -6°C° 5.2 mm 1 m/s 569 mmHg 98%
    07:00 -4°C° 5.2 mm 1 m/s 569 mmHg 98%
    08:00 -6°C° 4.9 mm 2 m/s 569 mmHg 98%
    09:00 -6°C° 4.9 mm 2 m/s 570 mmHg 98%
    10:00 -6°C° 4.9 mm 2 m/s 570 mmHg 98%
    11:00 -6°C° 2.8 mm 2 m/s 571 mmHg 98%
    12:00 -5°C° 2.8 mm 2 m/s 571 mmHg 98%
    13:00 -5°C° 2.8 mm 2 m/s 571 mmHg 98%
    14:00 -3°C° 2.1 mm 1 m/s 571 mmHg 98%
    15:00 -3°C° 2.1 mm 1 m/s 571 mmHg 98%
    16:00 -3°C° 2.1 mm 1 m/s 570 mmHg 98%
    17:00 -4°C° 3.1 mm 1 m/s 571 mmHg 98%
    18:00 -4°C° 3.1 mm 1 m/s 571 mmHg 98%
    19:00 -4°C° 3.1 mm 1 m/s 571 mmHg 98%
    20:00 -4°C° 1.9 mm 1 m/s 571 mmHg 98%
    21:00 -6°C° 1.9 mm 1 m/s 572 mmHg 97%
    22:00 -6°C° 1.9 mm 1 m/s 572 mmHg 97%
    23:00 -6°C° 0.2 mm 1 m/s 572 mmHg 97%

    16 Noiembrie, Sâmbătă

    Timp Temperatura Precipitaţii Vânt Presiune Umiditate
    00:00 -7°C° 0.2 mm 1 m/s 573 mmHg 96%
    01:00 -8°C° 0.2 mm 2 m/s 573 mmHg 96%
    02:00 -7°C° 0.5 mm 1 m/s 573 mmHg 97%
    03:00 -7°C° 0.5 mm 1 m/s 573 mmHg 97%
    04:00 -7°C° 0.5 mm 1 m/s 574 mmHg 97%
    05:00 -7°C° 0.5 mm 1 m/s 574 mmHg 97%
    06:00 -7°C° 0.5 mm 1 m/s 574 mmHg 97%
    07:00 -7°C° 0.5 mm 1 m/s 575 mmHg 97%
    08:00 -7°C° 0.2 mm 1 m/s 575 mmHg 97%
    09:00 -6°C° 0.2 mm 1 m/s 576 mmHg 97%
    10:00 -6°C° 0.2 mm 1 m/s 577 mmHg 97%
    11:00 -4°C° 0 mm 1 m/s 577 mmHg 96%
    12:00 -4°C° 0 mm 1 m/s 576 mmHg 96%
    13:00 -4°C° 0 mm 1 m/s 576 mmHg 95%
    14:00 -4°C° 0 mm 1 m/s 576 mmHg 95%
    15:00 -4°C° 0 mm 1 m/s 576 mmHg 96%
    16:00 -6°C° 0 mm 1 m/s 576 mmHg 96%
    17:00 -6°C° 0.1 mm 1 m/s 576 mmHg 95%
    18:00 -7°C° 0.1 mm 1 m/s 575 mmHg 93%
    19:00 -7°C° 0.1 mm 1 m/s 575 mmHg 92%
    20:00 -7°C° 0.2 mm 1 m/s 575 mmHg 93%
    21:00 -7°C° 0.2 mm 1 m/s 575 mmHg 95%
    22:00 -7°C° 0.2 mm 1 m/s 575 mmHg 96%
    23:00 -6°C° 1.8 mm 1 m/s 574 mmHg 96%

    17 Noiembrie, Duminică

    Timp Temperatura Precipitaţii Vânt Presiune Umiditate
    00:00 -6°C° 1.8 mm 1 m/s 574 mmHg 97%
    01:00 -6°C° 1.8 mm 1 m/s 574 mmHg 98%
    02:00 -4°C° 1.1 mm 1 m/s 574 mmHg 98%
    03:00 -4°C° 1.1 mm 1 m/s 573 mmHg 98%
    04:00 -4°C° 1.1 mm 1 m/s 573 mmHg 98%
    05:00 -4°C° 1.2 mm 1 m/s 573 mmHg 98%
    06:00 -3°C° 1.2 mm 1 m/s 573 mmHg 98%
    07:00 -3°C° 1.2 mm 1 m/s 573 mmHg 98%
    08:00 -3°C° 1.3 mm 1 m/s 573 mmHg 98%
    09:00 -2°C° 1.3 mm 1 m/s 573 mmHg 98%
    10:00 -2°C° 1.3 mm 1 m/s 573 mmHg 98%
    11:00 -2°C° 4 mm 1 m/s 572 mmHg 99%
    12:00 -4°C° 4 mm 2 m/s 572 mmHg 99%
    13:00 -4°C° 4 mm 2 m/s 571 mmHg 99%
    14:00 -4°C° 4.4 mm 2 m/s 571 mmHg 99%
    15:00 -4°C° 4.4 mm 2 m/s 571 mmHg 99%
    16:00 -2°C° 4.4 mm 1 m/s 571 mmHg 99%
    17:00 -2°C° 1.7 mm 1 m/s 571 mmHg 99%
    18:00 -2°C° 1.7 mm 1 m/s 571 mmHg 99%
    19:00 -2°C° 1.7 mm 1 m/s 570 mmHg 99%
    20:00 -2°C° 1.8 mm 1 m/s 570 mmHg 99%
    21:00 -2°C° 1.8 mm 1 m/s 571 mmHg 98%
    22:00 -2°C° 1.8 mm 1 m/s 571 mmHg 98%
    23:00 -3°C° 1.5 mm 1 m/s 571 mmHg 98%

    18 Noiembrie, Luni

    Timp Temperatura Precipitaţii Vânt Presiune Umiditate
    00:00 -3°C° 1.5 mm 1 m/s 571 mmHg 98%
    01:00 -3°C° 1.5 mm 1 m/s 571 mmHg 98%
    02:00 -3°C° 1.6 mm 1 m/s 571 mmHg 98%
    03:00 -3°C° 1.6 mm 1 m/s 571 mmHg 98%
    04:00 -3°C° 1.6 mm 1 m/s 571 mmHg 99%
    05:00 -3°C° 1.8 mm 1 m/s 572 mmHg 98%
    06:00 -3°C° 1.8 mm 1 m/s 572 mmHg 98%
    07:00 -3°C° 1.8 mm 1 m/s 573 mmHg 98%
    08:00 -3°C° 0.7 mm 1 m/s 573 mmHg 98%
    09:00 -3°C° 0.7 mm 1 m/s 574 mmHg 98%
    10:00 -3°C° 0.7 mm 1 m/s 575 mmHg 98%
    11:00 -3°C° 0.2 mm 1 m/s 575 mmHg 98%
    12:00 -4°C° 0.2 mm 2 m/s 575 mmHg 98%
    13:00 -4°C° 0.2 mm 2 m/s 575 mmHg 98%
    14:00 -5°C° 0.1 mm 2 m/s 575 mmHg 98%
    15:00 -3°C° 0.1 mm 1 m/s 575 mmHg 98%
    16:00 -3°C° 0.1 mm 1 m/s 575 mmHg 97%
    17:00 -4°C° 0 mm 1 m/s 575 mmHg 95%
    18:00 -6°C° 0 mm 1 m/s 575 mmHg 94%
    19:00 -7°C° 0 mm 1 m/s 575 mmHg 92%
    20:00 -7°C° 0 mm 1 m/s 575 mmHg 92%
    21:00 -7°C° 0 mm 1 m/s 575 mmHg 93%
    22:00 -7°C° 0 mm 1 m/s 575 mmHg 94%
    23:00 -7°C° 0.1 mm 1 m/s 575 mmHg 94%
    Arată mai mult